29-03-2023, 00:00:00,    204,    0.0,    6.5,   0.00,   0.00, 1010.0,    0.6, -999.0
29-03-2023, 00:00:10,    204,    0.0,    6.5,   0.00,   0.00, 1010.0,    0.5, -999.0
29-03-2023, 00:00:20,    204,    0.0,    6.5,   0.00,   0.00, 1010.0,    0.8, -999.0
29-03-2023, 00:00:30,    204,    0.0,    6.6,   0.00,   0.00, 1010.0,    0.7, -999.0
29-03-2023, 00:00:40,    204,    0.0,    6.5,   0.00,   0.00, 1010.0,    0.6, -999.0
29-03-2023, 00:00:50,    204,    0.0,    6.5,   0.00,   0.00, 1010.0,    0.8, -999.0
29-03-2023, 00:00:59,    204,    0.0,    6.5,   0.00,   0.00, 1010.0,    0.0, -999.0
29-03-2023, 00:01:10,    204,    0.0,    6.5,   0.00,   0.00, 1010.0,    0.2, -999.0
29-03-2023, 00:01:20,    204,    0.0,    6.6,   0.00,   0.00, 1010.0,    0.8, -999.0
29-03-2023, 00:01:30,    204,    0.0,    6.6,   0.00,   0.00, 1010.0,    0.8, -999.0
29-03-2023, 00:01:39,    204,    0.0,    6.7,   0.00,   0.00, 1010.0,    0.7, -999.0
29-03-2023, 00:01:50,    204,    0.0,    6.6,   0.00,   0.00, 1010.0,    0.5, -999.0
29-03-2023, 00:02:00,    201,    0.0,    6.6,   0.00,   0.00, 1010.0,    0.7, -999.0
29-03-2023, 00:02:09,    200,    0.0,    6.5,   0.00,   0.00, 1010.0,    0.5, -999.0
29-03-2023, 00:02:19,    201,    0.0,    6.5,   0.00,   0.00, 1010.0,    0.5, -999.0
29-03-2023, 00:02:30,    201,    0.0,    6.5,   0.00,   0.00, 1010.0,    0.6, -999.0
29-03-2023, 00:02:40,    200,    0.0,    6.5,   0.00,   0.00, 1010.0,    0.7, -999.0
29-03-2023, 00:02:49,    200,    0.0,    6.5,   0.00,   0.00, 1010.0,    0.7, -999.0
29-03-2023, 00:02:59,    200,    0.0,    6.5,   0.00,   0.00, 1010.0,    0.4, -999.0
29-03-2023, 00:03:10,    200,    0.0,    6.6,   0.00,   0.00, 1010.0,    0.7, -999.0
29-03-2023, 00:03:19,    201,    0.0,    6.6,   0.00,   0.00, 1010.0,    0.6, -999.0
29-03-2023, 00:03:29,    200,    0.0,    6.6,   0.00,   0.00, 1010.0,    0.7, -999.0
29-03-2023, 00:03:39,    200,    0.0,    6.6,   0.00,   0.00, 1010.0,    0.4, -999.0
29-03-2023, 00:03:49,    200,    0.0,    6.5,   0.00,   0.00, 1010.0,    0.6, -999.0
29-03-2023, 00:03:59,    200,    0.0,    6.6,   0.00,   0.00, 1010.0,    0.6, -999.0
29-03-2023, 00:04:09,    200,    0.0,    6.6,   0.00,   0.00, 1010.0,    0.7, -999.0
29-03-2023, 00:04:19,    200,    0.0,    6.6,   0.00,   0.00, 1010.0,    0.5, -999.0
29-03-2023, 00:04:29,    200,    0.0,    6.6,   0.00,   0.00, 1010.0,    0.6, -999.0
29-03-2023, 00:04:39,    201,    0.0,    6.6,   0.00,   0.00, 1010.0,    0.4, -999.0
29-03-2023, 00:04:49,    200,    0.0,    6.6,   0.00,   0.00, 1010.0,    0.7, -999.0
29-03-2023, 00:04:59,    200,    0.0,    6.6,   0.00,   0.00, 1010.0,    0.5, -999.0
29-03-2023, 00:05:09,    200,    0.0,    6.6,   0.00,   0.00, 1010.0,    0.5, -999.0
29-03-2023, 00:05:19,    201,    0.0,    6.6,   0.00,   0.00, 1010.0,    0.5, -999.0
29-03-2023, 00:05:29,    200,    0.0,    6.5,   0.00,   0.00, 1010.0,    0.5, -999.0
29-03-2023, 00:05:39,    200,    0.0,    6.6,   0.00,   0.00, 1010.0,    0.5, -999.0
29-03-2023, 00:05:49,    201,    0.0,    6.6,   0.00,   0.00, 1010.0,    0.7, -999.0
29-03-2023, 00:05:59,    201,    0.0,    6.6,   0.00,   0.00, 1010.0,    0.6, -999.0
29-03-2023, 00:06:09,    200,    0.0,    6.6,   0.00,   0.00, 1010.0,    0.6, -999.0
29-03-2023, 00:06:19,    203,    0.0,    6.6,   0.00,   0.00, 1010.0,    0.6, -999.0
29-03-2023, 00:06:29,    201,    0.0,    6.6,   0.00,   0.00, 1010.0,    0.6, -999.0
29-03-2023, 00:06:39,    203,    0.0,    6.5,   0.00,   0.00, 1009.9,    0.5, -999.0
29-03-2023, 00:06:49,    202,    0.0,    6.4,   0.00,   0.00, 1010.0,    0.6, -999.0
29-03-2023, 00:06:59,    202,    0.0,    6.5,   0.00,   0.00, 1010.0,    0.0, -999.0
29-03-2023, 00:07:09,    202,    0.0,    6.6,   0.00,   0.00, 1010.0,    0.2, -999.0
29-03-2023, 00:07:19,    202,    0.0,    6.6,   0.00,   0.00, 1009.9,    0.0, -999.0
29-03-2023, 00:07:29,    202,    0.0,    6.6,   0.00,   0.00, 1010.0,    0.6, -999.0
29-03-2023, 00:07:39,    202,    0.0,    6.5,   0.00,   0.00, 1010.0,    0.9, -999.0
29-03-2023, 00:07:49,    201,    0.0,    6.6,   0.00,   0.00, 1009.9,    0.7, -999.0
29-03-2023, 00:07:59,    203,    0.0,    6.6,   0.00,   0.00, 1009.9,    0.6, -999.0
29-03-2023, 00:08:09,    202,    0.0,    6.6,   0.00,   0.00, 1009.9,    0.7, -999.0
29-03-2023, 00:08:19,    203,    0.0,    6.6,   0.00,   0.00, 1009.9,    0.9, -999.0
29-03-2023, 00:08:29,    201,    0.0,    6.6,   0.00,   0.00, 1009.9,    0.2, -999.0
29-03-2023, 00:08:39,    202,    0.0,    6.6,   0.00,   0.00, 1009.9,    0.5, -999.0
29-03-2023, 00:08:49,    200,    0.0,    6.6,   0.00,   0.00, 1009.9,    0.4, -999.0
29-03-2023, 00:08:59,    200,    0.0,    6.7,   0.00,   0.00, 1010.0,    0.8, -999.0
29-03-2023, 00:09:09,    200,    0.0,    6.6,   0.00,   0.00, 1009.9,    0.8, -999.0
29-03-2023, 00:09:19,    200,    0.0,    6.6,   0.00,   0.00, 1009.9,    0.5, -999.0
29-03-2023, 00:09:29,    199,    0.0,    6.6,   0.00,   0.00, 1009.9,    0.4, -999.0
29-03-2023, 00:09:39,    200,    0.0,    6.5,   0.00,   0.00, 1009.9,    0.8, -999.0
29-03-2023, 00:09:49,    200,    0.0,    6.6,   0.00,   0.00, 1009.9,    0.7, -999.0
29-03-2023, 00:09:59,    200,    0.0,    6.6,   0.00,   0.00, 1009.9,    0.3, -999.0
29-03-2023, 00:10:08,    200,    0.0,    6.6,   0.00,   0.00, 1009.9,    0.6, -999.0
29-03-2023, 00:10:19,    200,    0.0,    6.6,   0.00,   0.00, 1009.9,    0.5, -999.0
29-03-2023, 00:10:29,    200,    0.0,    6.6,   0.00,   0.00, 1009.9,    0.6, -999.0
29-03-2023, 00:10:39,    200,    0.0,    6.6,   0.00,   0.00, 1009.9,    0.7, -999.0
29-03-2023, 00:10:48,    200,    0.0,    6.6,   0.00,   0.00, 1009.9,    0.5, -999.0
29-03-2023, 00:10:59,    200,    0.0,    6.6,   0.00,   0.00, 1009.9,    0.2, -999.0
29-03-2023, 00:11:09,    200,    0.0,    6.6,   0.00,   0.00, 1009.9,    0.6, -999.0
29-03-2023, 00:11:18,    200,    0.0,    6.6,   0.00,   0.00, 1009.9,    0.4, -999.0
29-03-2023, 00:11:28,    200,    0.0,    6.7,   0.00,   0.00, 1009.9,    0.7, -999.0
29-03-2023, 00:11:39,    200,    0.0,    6.6,   0.00,   0.00, 1009.9,    0.7, -999.0
29-03-2023, 00:11:49,    200,    0.0,    6.6,   0.00,   0.00, 1010.0,    0.6, -999.0
29-03-2023, 00:11:58,    200,    0.0,    6.7,   0.00,   0.00, 1010.0,    0.4, -999.0
29-03-2023, 00:12:08,    200,    0.0,    6.6,   0.00,   0.00, 1009.9,    0.6, -999.0
29-03-2023, 00:12:19,    200,    0.0,    6.5,   0.00,   0.00, 1009.9,    0.5, -999.0
29-03-2023, 00:12:28,    199,    0.0,    6.6,   0.00,   0.00, 1009.9,    0.7, -999.0
29-03-2023, 00:12:38,    200,    0.0,    6.6,   0.00,   0.00, 1010.0,    0.5, -999.0
29-03-2023, 00:12:49,    200,    0.0,    6.6,   0.00,   0.00, 1010.0,    0.8, -999.0
29-03-2023, 00:12:59,    200,    0.0,    6.6,   0.00,   0.00, 1010.0,    0.6, -999.0
29-03-2023, 00:13:08,    200,    0.0,    6.6,   0.00,   0.00, 1010.0,    0.7, -999.0
29-03-2023, 00:13:18,    200,    0.0,    6.6,   0.00,   0.00, 1010.0,    0.7, -999.0
29-03-2023, 00:13:28,    200,    0.0,    6.7,   0.00,   0.00, 1010.0,    0.5, -999.0
29-03-2023, 00:13:38,    200,    0.0,    6.6,   0.00,   0.00, 1010.0,    0.7, -999.0
29-03-2023, 00:13:48,    200,    0.0,    6.6,   0.00,   0.00, 1010.0,    0.6, -999.0
29-03-2023, 00:13:58,    199,    0.0,    6.6,   0.00,   0.00, 1010.0,    0.5, -999.0
29-03-2023, 00:14:09,    199,    0.0,    6.6,   0.00,   0.00, 1009.9,    0.6, -999.0
29-03-2023, 00:14:18,    199,    0.0,    6.6,   0.00,   0.00, 1009.9,    0.7, -999.0
29-03-2023, 00:14:28,    199,    0.0,    6.5,   0.00,   0.00, 1009.9,    0.5, -999.0
29-03-2023, 00:14:38,    199,    0.0,    6.5,   0.00,   0.00, 1010.0,    0.5, -999.0
29-03-2023, 00:14:48,    199,    0.0,    6.5,   0.00,   0.00, 1010.0,    0.6, -999.0
29-03-2023, 00:14:58,    199,    0.0,    6.6,   0.00,   0.00, 1010.0,    0.5, -999.0
29-03-2023, 00:15:08,    199,    0.0,    6.6,   0.00,   0.00, 1009.9,    0.7, -999.0
29-03-2023, 00:15:18,    199,    0.0,    6.7,   0.00,   0.00, 1009.9,    0.5, -999.0
29-03-2023, 00:15:28,    198,    0.0,    6.6,   0.00,   0.00, 1009.9,    0.4, -999.0
29-03-2023, 00:15:38,    198,    0.0,    6.6,   0.00,   0.00, 1009.9,    0.4, -999.0
29-03-2023, 00:15:48,    198,    0.0,    6.7,   0.00,   0.00, 1009.9,    0.6, -999.0
29-03-2023, 00:15:58,    198,    0.0,    6.7,   0.00,   0.00, 1010.0,    0.7, -999.0
29-03-2023, 00:16:08,    197,    0.0,    6.6,   0.00,   0.00, 1010.0,    0.3, -999.0
29-03-2023, 00:16:18,    197,    0.0,    6.7,   0.00,   0.00, 1009.9,    0.7, -999.0
29-03-2023, 00:16:28,    197,    0.0,    6.8,   0.00,   0.00, 1009.9,    0.3, -999.0
29-03-2023, 00:16:38,    197,    0.0,    6.6,   0.00,   0.00, 1009.9,    0.9, -999.0
29-03-2023, 00:16:48,    197,    0.0,    6.5,   0.00,   0.00, 1009.9,    0.9, -999.0
29-03-2023, 00:16:58,    197,    0.0,    6.6,   0.00,   0.00, 1009.9,    0.6, -999.0
29-03-2023, 00:17:08,    197,    0.0,    6.6,   0.00,   0.00, 1009.9,    0.6, -999.0
29-03-2023, 00:17:18,    197,    0.0,    6.6,   0.00,   0.00, 1009.9,    0.6, -999.0
29-03-2023, 00:17:28,    197,    0.0,    6.6,   0.00,   0.00, 1009.9,    0.2, -999.0
29-03-2023, 00:17:38,    197,    0.0,    6.6,   0.00,   0.00, 1009.9,    0.8, -999.0
29-03-2023, 00:17:48,    197,    0.0,    6.5,   0.00,   0.00, 1009.9,    1.1, -999.0
29-03-2023, 00:17:58,    163,    0.0,    6.6,   0.00,   0.00, 1009.9,    0.6, -999.0
29-03-2023, 00:18:08,    163,    0.0,    6.6,   0.00,   0.00, 1009.9,    0.4, -999.0
29-03-2023, 00:18:18,    163,    0.0,    6.6,   0.00,   0.00, 1009.9,    0.7, -999.0
29-03-2023, 00:18:28,    191,    0.0,    6.7,   0.00,   0.00, 1009.9,    0.2, -999.0
29-03-2023, 00:18:38,    191,    0.0,    6.6,   0.00,   0.00, 1009.9,    0.1, -999.0
29-03-2023, 00:18:48,    191,    0.0,    6.6,   0.00,   0.00, 1009.9,    0.6, -999.0
29-03-2023, 00:18:58,    191,    0.0,    6.6,   0.00,   0.00, 1009.9,    0.7, -999.0
29-03-2023, 00:19:08,    191,    0.0,    6.6,   0.00,   0.00, 1009.9,    1.0, -999.0
29-03-2023, 00:19:18,    191,    0.0,    6.6,   0.00,   0.00, 1009.9,    0.7, -999.0
29-03-2023, 00:19:28,    191,    0.0,    6.6,   0.00,   0.00, 1009.9,    0.4, -999.0
29-03-2023, 00:19:38,    191,    0.0,    6.7,   0.00,   0.00, 1009.9,    0.5, -999.0
29-03-2023, 00:19:48,    191,    0.0,    6.6,   0.00,   0.00, 1009.9,    0.4, -999.0
29-03-2023, 00:19:58,    190,    0.0,    6.6,   0.00,   0.00, 1009.9,    0.5, -999.0
29-03-2023, 00:20:08,    191,    0.0,    6.6,   0.00,   0.00, 1009.9,    0.5, -999.0
29-03-2023, 00:20:18,    191,    0.0,    6.7,   0.00,   0.00, 1009.9,    0.5, -999.0
29-03-2023, 00:20:27,    191,    0.0,    6.6,   0.00,   0.00, 1009.9,    0.6, -999.0
29-03-2023, 00:20:38,    191,    0.0,    6.6,   0.00,   0.00, 1009.9,    0.5, -999.0
29-03-2023, 00:20:48,    191,    0.0,    6.7,   0.00,   0.00, 1009.9,    0.9, -999.0
29-03-2023, 00:20:58,    191,    0.0,    6.6,   0.00,   0.00, 1009.9,    0.5, -999.0
29-03-2023, 00:21:08,    191,    0.0,    6.6,   0.00,   0.00, 1009.9,    0.5, -999.0
29-03-2023, 00:21:18,    191,    0.0,    6.6,   0.00,   0.00, 1009.9,    0.7, -999.0
29-03-2023, 00:21:28,    192,    0.0,    6.6,   0.00,   0.00, 1009.9,    0.7, -999.0
29-03-2023, 00:21:37,    191,    0.0,    6.6,   0.00,   0.00, 1009.9,    0.5, -999.0
29-03-2023, 00:21:48,    191,    0.0,    6.6,   0.00,   0.00, 1009.9,    0.5, -999.0
29-03-2023, 00:21:58,    191,    0.0,    6.5,   0.00,   0.00, 1009.9,    0.7, -999.0
29-03-2023, 00:22:07,    191,    0.0,    6.6,   0.00,   0.00, 1009.9,    0.6, -999.0
29-03-2023, 00:22:17,    190,    0.0,    6.6,   0.00,   0.00, 1009.9,    0.7, -999.0
29-03-2023, 00:22:28,    191,    0.0,    6.6,   0.00,   0.00, 1009.9,    0.4, -999.0
29-03-2023, 00:22:38,    191,    0.0,    6.7,   0.00,   0.00, 1009.9,    0.5, -999.0
29-03-2023, 00:22:47,    190,    0.0,    6.6,   0.00,   0.00, 1009.9,    0.6, -999.0
29-03-2023, 00:22:57,    190,    0.0,    6.6,   0.00,   0.00, 1009.9,    0.6, -999.0
29-03-2023, 00:23:08,    190,    0.0,    6.6,   0.00,   0.00, 1009.9,    0.6, -999.0
29-03-2023, 00:23:17,    190,    0.0,    6.7,   0.00,   0.00, 1009.8,    0.5, -999.0
29-03-2023, 00:23:27,    190,    0.0,    6.7,   0.00,   0.00, 1009.8,    0.5, -999.0
29-03-2023, 00:23:37,    191,    0.0,    6.7,   0.00,   0.00, 1009.8,    0.5, -999.0
29-03-2023, 00:23:48,    190,    0.0,    6.6,   0.00,   0.00, 1009.8,    0.5, -999.0
29-03-2023, 00:23:57,    190,    0.0,    6.6,   0.00,   0.00, 1009.8,    0.7, -999.0
29-03-2023, 00:24:07,    190,    0.0,    6.5,   0.00,   0.00, 1009.9,    0.6, -999.0
29-03-2023, 00:24:17,    190,    0.0,    6.6,   0.00,   0.00, 1009.9,    0.4, -999.0
29-03-2023, 00:24:27,    190,    0.0,    6.6,   0.00,   0.00, 1009.9,    0.3, -999.0
29-03-2023, 00:24:37,    190,    0.0,    6.6,   0.00,   0.00, 1009.8,    0.8, -999.0
29-03-2023, 00:24:47,    190,    0.0,    6.6,   0.00,   0.00, 1009.8,    0.5, -999.0
29-03-2023, 00:24:57,    190,    0.0,    6.6,   0.00,   0.00, 1009.8,    0.6, -999.0
29-03-2023, 00:25:07,    190,    0.0,    6.5,   0.00,   0.00, 1009.9,    0.5, -999.0
29-03-2023, 00:25:17,    190,    0.0,    6.7,   0.00,   0.00, 1009.8,    0.6, -999.0
29-03-2023, 00:25:27,    190,    0.0,    6.6,   0.00,   0.00, 1009.8,    0.8, -999.0
29-03-2023, 00:25:37,    190,    0.0,    6.6,   0.00,   0.00, 1009.8,    0.5, -999.0
29-03-2023, 00:25:47,    190,    0.0,    6.5,   0.00,   0.00, 1009.8,    0.5, -999.0
29-03-2023, 00:25:57,    190,    0.0,    6.6,   0.00,   0.00, 1009.8,    0.4, -999.0
29-03-2023, 00:26:07,    190,    0.0,    6.6,   0.00,   0.00, 1009.8,    0.7, -999.0
29-03-2023, 00:26:17,    190,    0.0,    6.6,   0.00,   0.00, 1009.8,    0.4, -999.0
29-03-2023, 00:26:27,    190,    0.0,    6.6,   0.00,   0.00, 1009.8,    0.7, -999.0
29-03-2023, 00:26:37,    190,    0.0,    6.6,   0.00,   0.00, 1009.8,    0.5, -999.0
29-03-2023, 00:26:47,    191,    0.0,    6.6,   0.00,   0.00, 1009.8,    0.6, -999.0
29-03-2023, 00:26:57,    190,    0.0,    6.6,   0.00,   0.00, 1009.8,    0.7, -999.0
29-03-2023, 00:27:07,    190,    0.0,    6.5,   0.00,   0.00, 1009.8,    0.7, -999.0
29-03-2023, 00:27:17,    190,    0.0,    6.6,   0.00,   0.00, 1009.9,    0.6, -999.0
29-03-2023, 00:27:27,    190,    0.0,    6.6,   0.00,   0.00, 1009.9,    0.6, -999.0
29-03-2023, 00:27:37,    190,    0.0,    6.6,   0.00,   0.00, 1009.9,    0.4, -999.0
29-03-2023, 00:27:47,    190,    0.0,    6.6,   0.00,   0.00, 1009.9,    0.6, -999.0
29-03-2023, 00:27:57,    190,    0.0,    6.6,   0.00,   0.00, 1009.9,    0.5, -999.0
29-03-2023, 00:28:07,    191,    0.0,    6.6,   0.00,   0.00, 1009.8,    0.6, -999.0
29-03-2023, 00:28:17,    190,    0.0,    6.6,   0.00,   0.00, 1009.9,    0.5, -999.0
29-03-2023, 00:28:27,    190,    0.0,    6.6,   0.00,   0.00, 1009.8,    0.6, -999.0
29-03-2023, 00:28:37,    190,    0.0,    6.6,   0.00,   0.00, 1009.8,    0.4, -999.0
29-03-2023, 00:28:47,    190,    0.0,    6.6,   0.00,   0.00, 1009.9,    0.6, -999.0
29-03-2023, 00:28:57,    191,    0.0,    6.7,   0.00,   0.00, 1009.9,    0.5, -999.0
29-03-2023, 00:29:07,    190,    0.0,    6.6,   0.00,   0.00, 1009.8,    0.4, -999.0
29-03-2023, 00:29:17,    190,    0.0,    6.6,   0.00,   0.00, 1009.8,    0.4, -999.0
29-03-2023, 00:29:27,    190,    0.0,    6.6,   0.00,   0.00, 1009.8,    0.9, -999.0
29-03-2023, 00:29:37,    190,    0.0,    6.6,   0.00,   0.00, 1009.8,    0.6, -999.0
29-03-2023, 00:29:49,    190,    0.0,    6.6,   0.00,   0.00, 1009.8,    0.2, -999.0
29-03-2023, 00:29:57,    190,    0.0,    6.6,   0.00,   0.00, 1009.9,    0.0, -999.0
29-03-2023, 00:30:07,    190,    0.0,    6.7,   0.00,   0.00, 1009.8,    0.6, -999.0
29-03-2023, 00:30:17,    168,    0.0,    6.6,   0.00,   0.00, 1009.8,    0.5, -999.0
29-03-2023, 00:30:27,    168,    0.0,    6.7,   0.00,   0.00, 1009.8,    1.0, -999.0
29-03-2023, 00:30:37,    167,    0.0,    6.6,   0.00,   0.00, 1009.8,    0.6, -999.0
29-03-2023, 00:30:47,    167,    0.0,    6.7,   0.00,   0.00, 1009.8,    0.8, -999.0
29-03-2023, 00:30:57,    167,    0.0,    6.7,   0.00,   0.00, 1009.8,    0.6, -999.0
29-03-2023, 00:31:07,    168,    0.0,    6.7,   0.00,   0.00, 1009.8,    0.6, -999.0
29-03-2023, 00:31:16,    168,    0.0,    6.7,   0.00,   0.00, 1009.8,    0.7, -999.0
29-03-2023, 00:31:27,    168,    0.0,    6.6,   0.00,   0.00, 1009.8,    0.6, -999.0
29-03-2023, 00:31:37,    168,    0.0,    6.6,   0.00,   0.00, 1009.8,    0.4, -999.0
29-03-2023, 00:31:47,    167,    0.0,    6.7,   0.00,   0.00, 1009.8,    0.6, -999.0
29-03-2023, 00:31:56,    168,    0.0,    6.7,   0.00,   0.00, 1009.8,    0.6, -999.0
29-03-2023, 00:32:07,    168,    0.0,    6.7,   0.00,   0.00, 1009.8,    0.8, -999.0
29-03-2023, 00:32:17,    168,    0.0,    6.7,   0.00,   0.00, 1009.8,    0.6, -999.0
29-03-2023, 00:32:26,    168,    0.0,    6.7,   0.00,   0.00, 1009.8,    0.5, -999.0
29-03-2023, 00:32:36,    170,    0.0,    6.7,   0.00,   0.00, 1009.8,    0.8, -999.0
29-03-2023, 00:32:47,    171,    0.0,    6.6,   0.00,   0.00, 1009.8,    0.4, -999.0
29-03-2023, 00:32:56,    171,    0.0,    6.7,   0.00,   0.00, 1009.8,    0.6, -999.0
29-03-2023, 00:33:06,    171,    0.0,    6.7,   0.00,   0.00, 1009.8,    0.6, -999.0
29-03-2023, 00:33:16,    169,    0.0,    6.7,   0.00,   0.00, 1009.8,    0.5, -999.0
29-03-2023, 00:33:27,    169,    0.0,    6.7,   0.00,   0.00, 1009.8,    0.9, -999.0
29-03-2023, 00:33:36,    169,    0.0,    6.7,   0.00,   0.00, 1009.8,    1.0, -999.0
29-03-2023, 00:33:46,    169,    0.0,    6.7,   0.00,   0.00, 1009.8,    0.3, -999.0
29-03-2023, 00:33:56,    169,    0.0,    6.7,   0.00,   0.00, 1009.8,    0.5, -999.0
29-03-2023, 00:34:07,    169,    0.0,    6.7,   0.00,   0.00, 1009.8,    0.6, -999.0
29-03-2023, 00:34:16,    169,    0.0,    6.7,   0.00,   0.00, 1009.8,    0.4, -999.0
29-03-2023, 00:34:26,    169,    0.0,    6.6,   0.00,   0.00, 1009.8,    0.6, -999.0
29-03-2023, 00:34:37,    169,    0.0,    6.6,   0.00,   0.00, 1009.8,    0.5, -999.0
29-03-2023, 00:34:46,    169,    0.0,    6.7,   0.00,   0.00, 1009.8,    0.6, -999.0
29-03-2023, 00:34:56,    169,    0.0,    6.7,   0.00,   0.00, 1009.8,    0.5, -999.0
29-03-2023, 00:35:06,    169,    0.0,    6.6,   0.00,   0.00, 1009.8,    0.4, -999.0
29-03-2023, 00:35:17,    168,    0.0,    6.7,   0.00,   0.00, 1009.8,    1.0, -999.0
29-03-2023, 00:35:26,    169,    0.0,    6.7,   0.00,   0.00, 1009.8,    0.8, -999.0
29-03-2023, 00:35:36,    169,    0.0,    6.6,   0.00,   0.00, 1009.7,    0.8, -999.0
29-03-2023, 00:35:46,    169,    0.0,    6.7,   0.00,   0.00, 1009.8,    0.6, -999.0
29-03-2023, 00:35:56,    169,    0.0,    6.7,   0.00,   0.00, 1009.7,    0.7, -999.0
29-03-2023, 00:36:06,    169,    0.0,    6.7,   0.00,   0.00, 1009.7,    0.3, -999.0
29-03-2023, 00:36:16,    169,    0.0,    6.7,   0.00,   0.00, 1009.7,    0.5, -999.0
29-03-2023, 00:36:26,    169,    0.0,    6.7,   0.00,   0.00, 1009.7,    0.3, -999.0
29-03-2023, 00:36:36,    169,    0.0,    6.6,   0.00,   0.00, 1009.8,    0.4, -999.0
29-03-2023, 00:36:46,    169,    0.0,    6.7,   0.00,   0.00, 1009.8,    0.8, -999.0
29-03-2023, 00:36:56,    169,    0.0,    6.7,   0.00,   0.00, 1009.7,    0.5, -999.0
29-03-2023, 00:37:06,    169,    0.0,    6.6,   0.00,   0.00, 1009.7,    0.6, -999.0
29-03-2023, 00:37:16,    169,    0.0,    6.6,   0.00,   0.00, 1009.7,    0.5, -999.0
29-03-2023, 00:37:26,    169,    0.0,    6.5,   0.00,   0.00, 1009.7,    0.5, -999.0
29-03-2023, 00:37:36,    169,    0.0,    6.6,   0.00,   0.00, 1009.7,    0.6, -999.0
29-03-2023, 00:37:46,    169,    0.0,    6.6,   0.00,   0.00, 1009.7,    0.5, -999.0
29-03-2023, 00:37:56,    169,    0.0,    6.5,   0.00,   0.00, 1009.7,    0.4, -999.0
29-03-2023, 00:38:06,    169,    0.0,    6.6,   0.00,   0.00, 1009.7,    0.5, -999.0
29-03-2023, 00:38:16,    168,    0.0,    6.5,   0.00,   0.00, 1009.7,    0.5, -999.0
29-03-2023, 00:38:26,    169,    0.0,    6.5,   0.00,   0.00, 1009.7,    0.7, -999.0
29-03-2023, 00:38:36,    169,    0.0,    6.6,   0.00,   0.00, 1009.7,    0.7, -999.0
29-03-2023, 00:38:46,    169,    0.0,    6.6,   0.00,   0.00, 1009.7,    0.8, -999.0
29-03-2023, 00:38:56,    169,    0.0,    6.6,   0.00,   0.00, 1009.7,    0.5, -999.0
29-03-2023, 00:39:06,    169,    0.0,    6.6,   0.00,   0.00, 1009.7,    0.7, -999.0
29-03-2023, 00:39:16,    169,    0.0,    6.6,   0.00,   0.00, 1009.7,    0.5, -999.0
29-03-2023, 00:39:26,    169,    0.0,    6.6,   0.00,   0.00, 1009.7,    0.6, -999.0
29-03-2023, 00:39:36,    169,    0.0,    6.5,   0.00,   0.00, 1009.7,    0.5, -999.0
29-03-2023, 00:39:46,    169,    0.0,    6.6,   0.00,   0.00, 1009.7,    0.7, -999.0
29-03-2023, 00:39:56,    169,    0.0,    6.6,   0.00,   0.00, 1009.7,    0.7, -999.0
29-03-2023, 00:40:06,    169,    0.0,    6.7,   0.00,   0.00, 1009.7,    0.7, -999.0
29-03-2023, 00:40:16,    169,    0.0,    6.7,   0.00,   0.00, 1009.7,    0.4, -999.0
29-03-2023, 00:40:26,    169,    0.0,    6.7,   0.00,   0.00, 1009.7,    0.5, -999.0
29-03-2023, 00:40:36,    169,    0.0,    6.7,   0.00,   0.00, 1009.7,    0.4, -999.0
29-03-2023, 00:40:46,    169,    0.0,    6.7,   0.00,   0.00, 1009.7,    0.6, -999.0
29-03-2023, 00:40:56,    170,    0.0,    6.7,   0.00,   0.00, 1009.7,    0.5, -999.0
29-03-2023, 00:41:05,    168,    0.0,    6.6,   0.00,   0.00, 1009.7,    0.5, -999.0
29-03-2023, 00:41:16,    169,    0.0,    6.6,   0.00,   0.00, 1009.7,    0.5, -999.0
29-03-2023, 00:41:26,    169,    0.0,    6.7,   0.00,   0.00, 1009.7,    0.7, -999.0
29-03-2023, 00:41:36,    169,    0.0,    6.6,   0.00,   0.00, 1009.7,    0.5, -999.0
29-03-2023, 00:41:45,    169,    0.0,    6.7,   0.00,   0.00, 1009.7,    0.6, -999.0
29-03-2023, 00:41:56,    169,    0.0,    6.6,   0.00,   0.00, 1009.7,    0.5, -999.0
29-03-2023, 00:42:06,    169,    0.0,    6.6,   0.00,   0.00, 1009.7,    0.5, -999.0
29-03-2023, 00:42:15,    169,    0.0,    6.6,   0.00,   0.00, 1009.6,    0.5, -999.0
29-03-2023, 00:42:25,    169,    0.0,    6.7,   0.00,   0.00, 1009.6,    0.7, -999.0
29-03-2023, 00:42:36,    169,    0.0,    6.7,   0.00,   0.00, 1009.6,    0.6, -999.0
29-03-2023, 00:42:46,    170,    0.0,    6.7,   0.00,   0.00, 1009.6,    0.7, -999.0
29-03-2023, 00:42:55,    169,    0.0,    6.7,   0.00,   0.00, 1009.6,    0.5, -999.0
29-03-2023, 00:43:05,    169,    0.0,    6.6,   0.00,   0.00, 1009.6,    0.7, -999.0
29-03-2023, 00:43:16,    169,    0.0,    6.6,   0.00,   0.00, 1009.6,    0.6, -999.0
29-03-2023, 00:43:25,    169,    0.0,    6.7,   0.00,   0.00, 1009.6,    0.5, -999.0
29-03-2023, 00:43:35,    168,    0.0,    6.6,   0.00,   0.00, 1009.6,    0.4, -999.0
29-03-2023, 00:43:45,    168,    0.0,    6.7,   0.00,   0.00, 1009.6,    0.6, -999.0
29-03-2023, 00:43:56,    168,    0.0,    6.7,   0.00,   0.00, 1009.6,    0.5, -999.0
29-03-2023, 00:44:05,    168,    0.0,    6.8,   0.00,   0.00, 1009.6,    0.7, -999.0
29-03-2023, 00:44:15,    168,    0.0,    6.6,   0.00,   0.00, 1009.6,    0.5, -999.0
29-03-2023, 00:44:25,    168,    0.0,    6.7,   0.00,   0.00, 1009.6,    0.5, -999.0
29-03-2023, 00:44:36,    168,    0.0,    6.7,   0.00,   0.00, 1009.6,    0.5, -999.0
29-03-2023, 00:44:45,    168,    0.0,    6.7,   0.00,   0.00, 1009.6,    0.7, -999.0
29-03-2023, 00:44:55,    169,    0.0,    6.5,   0.00,   0.00, 1009.6,    0.7, -999.0
29-03-2023, 00:45:05,    168,    0.0,    6.6,   0.00,   0.00, 1009.6,    0.5, -999.0
29-03-2023, 00:45:15,    168,    0.0,    6.8,   0.00,   0.00, 1009.6,    0.6, -999.0
29-03-2023, 00:45:25,    168,    0.0,    6.7,   0.00,   0.00, 1009.6,    0.5, -999.0
29-03-2023, 00:45:35,    168,    0.0,    6.6,   0.00,   0.00, 1009.6,    0.6, -999.0
29-03-2023, 00:45:45,    169,    0.0,    6.7,   0.00,   0.00, 1009.6,    0.5, -999.0
29-03-2023, 00:45:55,    168,    0.0,    6.6,   0.00,   0.00, 1009.6,    0.5, -999.0
29-03-2023, 00:46:05,    168,    0.0,    6.7,   0.00,   0.00, 1009.6,    0.5, -999.0
29-03-2023, 00:46:15,    168,    0.0,    6.7,   0.00,   0.00, 1009.6,    0.9, -999.0
29-03-2023, 00:46:25,    168,    0.0,    6.7,   0.00,   0.00, 1009.6,    0.6, -999.0
29-03-2023, 00:46:35,    168,    0.0,    6.7,   0.00,   0.00, 1009.6,    0.7, -999.0
29-03-2023, 00:46:45,    169,    0.0,    6.8,   0.00,   0.00, 1009.6,    0.3, -999.0